sat.trackr.live / text

‹ back to catalog

KAZSTSAT

NORAD 43783 · 2018-099AB

PAYLOAD ACTIVE UNKNOWN

§ Identity

Operator
Country
KAZ
Launch date
2018-12-03
Launch site
AFWTR
Launch vehicle
Mass (kg)
RCS (m²)

Purposes: earth_obs

External: N2YO · Heavens-Above · Gunter

§ Orbital elements

Epoch: 2026-09-15T19:45:44.586144Z

Period
96.00 min
Inclination
97.4212°
Eccentricity
0.0013552
Mean motion
15.00027884 rev/d
Perigee alt
557.4 km
Apogee alt
576.2 km
Semi-major
6,944.9 km
B*
1.0361e-4
RAAN
286.6304°
Arg perigee
103.8088°
Mean anomaly
256.4645°
Rev number
42,489

§ Raw data

KAZSTSAT1 43783U 18099AB  26258.82343271  .00001235  00000+0  10361-3 0  99992 43783  97.4212 286.6304 0013552 103.8088 256.4645 15.00027884424899

JSON: /api/v1/satellites/43783 · /tle

For live sub-satellite position, see the globe view (requires WebGL).

§ Visibility from observer

Set your observer location to see the next 7 days of passes ≥ 10°. The values pass through the URL so the page stays shareable.

No JS? Fill the form by hand. The geolocation button needs JavaScript.

§ Radio — SatNOGS DB

ModeDescriptionDownlinkUplink
FM S-band telemetry 2.227 GHz

1 transmitter · refreshed weekly from db.satnogs.org